Location: Unspecified
(0.0000°N, 0.0000°E)
Time: 23:00:30
(UTC+00:00)

Tiangong 2 - Pass Details

Date: 23 April 2018
Orbit: 381 x 388 km, 42.8° (Epoch: 24 April)

Event Time Altitude Azimuth Distance (km) Brightness Sun altitude
Rises 19:23:23 0° 280° (W) 2,243 6.5 -20.7°
Reaches altitude 10° 19:26:45 10° 241° (WSW) 1,392 4.5 -21.5°
Maximum altitude 19:27:40 11° 224° (SW) 1,336 4.2 -21.8°
Drops below altitude 10° 19:28:36 10° 207° (SSW) 1,393 4.0 -22.0°
Enters shadow 19:28:45 10° 204° (SSW) 1,412 4.0 -22.0°
